Location: Unspecified
(0.0000°N, 0.0000°E)
Time: 07:25:26
(UTC+00:00)

Courier 1B - Pass Details

Date: 26 September 2023
Orbit: 962 x 1208 km, 28.3° (Epoch: 06 December)

Event Time Altitude Azimuth Distance (km) Brightness Sun altitude
Rises 18:28:55 0° 324° (NW) 4,043 11.3 -9.4°
Reaches altitude 10° 18:32:52 10° 342° (NNW) 3,044 10.3 -10.4°
Maximum altitude 18:37:45 18° 23° (NNE) 2,429 9.3 -11.6°
Enters shadow 18:41:54 12° 60° (ENE) 2,823 9.4 -12.6°
Drops below altitude 10° 18:42:27 10° 64° (ENE) 2,930 - -12.8°
Sets 18:46:08 0° 82° (E) 3,837 - -13.7°
